Volver al catálogo

COSMOS 2448

GLONASS

ActivoNavegaciónMEO
NORAD 33468·PAYLOAD·🇷🇺 Russia

Lanzado Dec 25, 2008 desde Baikonur Cosmodrome

Loading…

Próximos Pases (próximas 24 horas)

TLE

ActualizadoSource: Space-Track

Época: Sep 10, 2026, 22:59 UTC

1 33468U 08067C   26253.95830602  .00000004  00000-0  00000-0 0  9990
2 33468  64.8717  66.3317 0003044 172.0358 188.0022  2.13116645137867

Sigue COSMOS 2448 en tiempo real con AllMySat

Download on the App Store